,,,PA_Meas_PMT16A,,PR_Meas_QMR101_102,,RH_Meas_QMH101,,SR_Meas_QMS101,,TA_Meas_QMH101,,GenWind,,GenWind,
date,time,status,PA,status,PR,status,RH,status,SR,status,TA,status,DirAvg,status,SpdAvg,
2011-09-01, 00:00:04,VALID,1001.2,VALID,0,VALID,92.8067,VALID,0,VALID,23.5451,VALID,122,VALID,0.582422,
2011-09-01, 00:01:04,VALID,1001.17,VALID,0,VALID,92.7914,VALID,0,VALID,23.5646,VALID,122,VALID,0.700781,
2011-09-01, 00:02:04,VALID,1001.17,VALID,0,VALID,92.7838,VALID,0,VALID,23.5646,VALID,122,VALID,0.716406,
2011-09-01, 00:03:04,VALID,1001.19,VALID,0,VALID,92.7838,VALID,0,VALID,23.6036,VALID,206,VALID,1.28555,
2011-09-01, 00:04:04,VALID,1001.16,VALID,0,VALID,92.7762,VALID,0,VALID,23.6019,VALID,213,VALID,1.11016,
2011-09-01, 00:05:04,VALID,1001.15,VALID,0,VALID,92.7533,VALID,0,VALID,23.6427,VALID,213,VALID,1.11484,
2011-09-01, 00:06:04,VALID,1001.16,VALID,0,VALID,92.7304,VALID,0,VALID,23.6427,VALID,213,VALID,0.833984,
2011-09-01, 00:07:04,VALID,1001.15,VALID,0,VALID,92.6999,VALID,0,VALID,23.6427,VALID,213,VALID,0.676953,
2011-09-01, 00:08:05,VALID,1001.16,VALID,0,VALID,92.6846,VALID,0.112286,VALID,23.6427,VALID,174,VALID,1.02422,
2011-09-01, 00:09:05,VALID,1001.18,VALID,0,VALID,92.6312,VALID,0,VALID,23.6427,VALID,174,VALID,1.22031,
2011-09-01, 00:10:05,VALID,1001.16,VALID,0,VALID,92.5778,VALID,0,VALID,23.6427,VALID,169,VALID,1.21875,
2011-09-01, 00:11:05,VALID,1001.16,VALID,0,VALID,92.5091,VALID,0,VALID,23.6427,VALID,159,VALID,1.06445,
2011-09-01, 00:12:05,VALID,1001.15,VALID,0,VALID,92.4634,VALID,0,VALID,23.6427,VALID,159,VALID,0.833203,
2011-09-01, 00:13:05,VALID,1001.14,VALID,0,VALID,92.4023,VALID,0.112286,VALID,23.6232,VALID,159,VALID,0.659766,
2011-09-01, 00:14:05,VALID,1001.15,VALID,0,VALID,92.3184,VALID,0,VALID,23.6036,VALID,159,VALID,0.577344,
2011-09-01, 00:15:05,VALID,1001.12,VALID,0,VALID,92.2574,VALID,0,VALID,23.5841,VALID,159,VALID,0.5,
2011-09-01, 00:16:05,VALID,1001.13,VALID,0,VALID,92.2497,VALID,0,VALID,23.5841,VALID,159,VALID,0.457812,
2011-09-01, 00:17:05,VALID,1001.14,VALID,0,VALID,92.2116,VALID,0,VALID,23.5646,VALID,159,VALID,0.459375,
2011-09-01, 00:18:05,VALID,1001.13,VALID,0,VALID,92.1963,VALID,0,VALID,23.5238,VALID,159,VALID,0.742969,
2011-09-01, 00:19:05,VALID,1001.12,VALID,0,VALID,92.204,VALID,0,VALID,23.5256,VALID,159,VALID,0.741016,
2011-09-01, 00:20:05,VALID,1001.11,VALID,0,VALID,92.2192,VALID,0,VALID,23.5061,VALID,125,VALID,0.910937,
2011-09-01, 00:21:05,VALID,1001.13,VALID,0,VALID,92.265,VALID,0,VALID,23.5061,VALID,98,VALID,0.710547,
2011-09-01, 00:22:05,VALID,1001.11,VALID,0,VALID,92.3184,VALID,0,VALID,23.4866,VALID,98,VALID,0.653906,
2011-09-01, 00:23:05,VALID,1001.1,VALID,0,VALID,92.2955,VALID,0,VALID,23.4671,VALID,98,VALID,0.668359,
2011-09-01, 00:24:05,VALID,1001.07,VALID,0,VALID,92.3489,VALID,0,VALID,23.4493,VALID,98,VALID,0.451172,
2011-09-01, 00:25:05,VALID,1001.06,VALID,0,VALID,92.3337,VALID,0,VALID,23.4493,VALID,98,VALID,0,
2011-09-01, 00:26:05,VALID,1001.07,VALID,0,VALID,92.3718,VALID,0,VALID,23.3908,VALID,98,VALID,0,
2011-09-01, 00:27:05,VALID,1001.04,VALID,0,VALID,92.3871,VALID,0,VALID,23.3908,VALID,98,VALID,0,
2011-09-01, 00:28:05,VALID,1001.04,VALID,0,VALID,92.4023,VALID,0,VALID,23.3908,VALID,98,VALID,0,
2011-09-01, 00:29:05,VALID,1001.02,VALID,0,VALID,92.4176,VALID,0,VALID,23.35,VALID,98,VALID,0,
2011-09-01, 00:30:05,VALID,1001.02,VALID,0,VALID,92.4252,VALID,0,VALID,23.3323,VALID,98,VALID,0,
2011-09-01, 00:31:05,VALID,1001.01,VALID,0,VALID,92.4481,VALID,0,VALID,23.3323,VALID,98,VALID,0,
2011-09-01, 00:32:05,VALID,1001,VALID,0,VALID,92.4557,VALID,0,VALID,23.3127,VALID,98,VALID,0,
2011-09-01, 00:33:05,VALID,1000.98,VALID,0,VALID,92.4863,VALID,0,VALID,23.3127,VALID,98,VALID,0,
2011-09-01, 00:34:05,VALID,1001.01,VALID,0,VALID,92.5091,VALID,0,VALID,23.3127,VALID,98,VALID,0,
2011-09-01, 00:35:05,VALID,1001,VALID,0,VALID,92.532,VALID,0,VALID,23.3127,VALID,98,VALID,0,
2011-09-01, 00:36:05,VALID,1001,VALID,0,VALID,92.5473,VALID,0,VALID,23.3127,VALID,98,VALID,0,
2011-09-01, 00:37:05,VALID,1001.05,VALID,0,VALID,92.5473,VALID,0,VALID,23.2932,VALID,98,VALID,0,
2011-09-01, 00:38:05,VALID,1001.07,VALID,0,VALID,92.5397,VALID,0,VALID,23.2932,VALID,98,VALID,0,
2011-09-01, 00:39:05,VALID,1001.01,VALID,0,VALID,92.5473,VALID,0,VALID,23.2915,VALID,98,VALID,0,
2011-09-01, 00:40:05,VALID,1001.02,VALID,0,VALID,92.5473,VALID,0,VALID,23.2719,VALID,98,VALID,0,
2011-09-01, 00:41:05,VALID,1001.01,VALID,0,VALID,92.5473,VALID,0,VALID,23.2524,VALID,98,VALID,0,
2011-09-01, 00:42:05,VALID,1001,VALID,0,VALID,92.6083,VALID,0,VALID,23.2524,VALID,98,VALID,0,
2011-09-01, 00:43:05,VALID,1000.97,VALID,0,VALID,92.6083,VALID,0,VALID,23.2524,VALID,98,VALID,0,
2011-09-01, 00:44:05,VALID,1001,VALID,0,VALID,92.6007,VALID,0,VALID,23.2329,VALID,98,VALID,0,
2011-09-01, 00:45:05,VALID,1000.93,VALID,0,VALID,92.6083,VALID,0,VALID,23.1939,VALID,98,VALID,0,
2011-09-01, 00:46:05,VALID,1000.96,VALID,0,VALID,92.6007,VALID,0,VALID,23.1744,VALID,98,VALID,0,
2011-09-01, 00:47:05,VALID,1000.91,VALID,0,VALID,92.6312,VALID,0,VALID,23.1744,VALID,98,VALID,0,
2011-09-01, 00:48:05,VALID,1000.87,VALID,0,VALID,92.6465,VALID,0,VALID,23.1354,VALID,98,VALID,0,
2011-09-01, 00:49:05,VALID,1000.92,VALID,0,VALID,92.6617,VALID,0,VALID,23.0964,VALID,98,VALID,0,
2011-09-01, 00:50:05,VALID,1000.87,VALID,0,VALID,92.6846,VALID,0,VALID,23.0964,VALID,98,VALID,0,
2011-09-01, 00:51:05,VALID,1000.89,VALID,0,VALID,92.6923,VALID,0,VALID,23.0964,VALID,98,VALID,0,
2011-09-01, 00:52:05,VALID,1000.87,VALID,0,VALID,92.7151,VALID,0,VALID,23.0981,VALID,98,VALID,0,
2011-09-01, 00:53:05,VALID,1000.86,VALID,0,VALID,92.7304,VALID,0,VALID,23.0573,VALID,98,VALID,0,
2011-09-01, 00:54:05,VALID,1000.88,VALID,0,VALID,92.7533,VALID,0,VALID,23.0573,VALID,98,VALID,0,
2011-09-01, 00:55:05,VALID,1000.87,VALID,0,VALID,92.7762,VALID,0,VALID,23.0396,VALID,98,VALID,0,
2011-09-01, 00:56:05,VALID,1000.85,VALID,0,VALID,92.8143,VALID,0,VALID,23.0573,VALID,98,VALID,0,
2011-09-01, 00:57:05,VALID,1000.86,VALID,0,VALID,92.8601,VALID,0,VALID,23.0573,VALID,98,VALID,0,
2011-09-01, 00:58:05,VALID,1000.86,VALID,0,VALID,92.883,VALID,0,VALID,23.0769,VALID,98,VALID,0,
2011-09-01, 00:59:05,VALID,1000.85,VALID,0,VALID,92.9135,VALID,0,VALID,23.0964,VALID,98,VALID,0,
2011-09-01, 01:00:05,VALID,1000.82,VALID,0,VALID,92.9288,VALID,0,VALID,23.0964,VALID,98,VALID,0,
2011-09-01, 01:01:05,VALID,1000.81,VALID,0,VALID,92.9364,VALID,0,VALID,23.0769,VALID,98,VALID,0,
2011-09-01, 01:02:05,VALID,1000.83,VALID,0,VALID,92.9593,VALID,0,VALID,23.0573,VALID,98,VALID,0,
2011-09-01, 01:03:05,VALID,1000.8,VALID,0,VALID,92.9517,VALID,0,VALID,23.0591,VALID,98,VALID,0,
2011-09-01, 01:04:05,VALID,1000.8,VALID,0,VALID,92.9898,VALID,0,VALID,23.0378,VALID,98,VALID,0,
2011-09-01, 01:05:05,VALID,1000.78,VALID,0,VALID,93.0051,VALID,0,VALID,23.0378,VALID,98,VALID,0,
2011-09-01, 01:06:05,VALID,1000.77,VALID,0,VALID,93.0051,VALID,0,VALID,23.0378,VALID,98,VALID,0,
2011-09-01, 01:07:05,VALID,1000.75,VALID,0,VALID,92.9974,VALID,0,VALID,22.9988,VALID,98,VALID,0,
2011-09-01, 01:08:05,VALID,1000.74,VALID,0,VALID,93.0356,VALID,0,VALID,23.0006,VALID,98,VALID,0,
2011-09-01, 01:09:05,VALID,1000.79,VALID,0,VALID,93.0508,VALID,0,VALID,22.9811,VALID,98,VALID,0,
2011-09-01, 01:10:05,VALID,1000.75,VALID,0,VALID,93.0432,VALID,0,VALID,22.9615,VALID,98,VALID,0,
2011-09-01, 01:11:05,VALID,1000.77,VALID,0,VALID,93.0585,VALID,0,VALID,22.9615,VALID,98,VALID,0,
2011-09-01, 01:12:05,VALID,1000.76,VALID,0,VALID,93.0737,VALID,0,VALID,22.942,VALID,98,VALID,0,
2011-09-01, 01:13:05,VALID,1000.75,VALID,0,VALID,93.0814,VALID,0,VALID,22.9615,VALID,98,VALID,0,
2011-09-01, 01:14:05,VALID,1000.76,VALID,0,VALID,93.0814,VALID,0,VALID,22.9615,VALID,98,VALID,0,
2011-09-01, 01:15:05,VALID,1000.79,VALID,0,VALID,93.1043,VALID,0,VALID,22.9811,VALID,98,VALID,0,
2011-09-01, 01:16:05,VALID,1000.77,VALID,0,VALID,93.1195,VALID,0,VALID,22.9615,VALID,98,VALID,0,
2011-09-01, 01:17:05,VALID,1000.74,VALID,0,VALID,93.1577,VALID,0,VALID,22.9615,VALID,98,VALID,0,
2011-09-01, 01:18:05,VALID,1000.76,VALID,0,VALID,93.1577,VALID,0,VALID,22.9811,VALID,98,VALID,0,
2011-09-01, 01:19:05,VALID,1000.74,VALID,0,VALID,93.1653,VALID,0,VALID,23.0006,VALID,98,VALID,0,
2011-09-01, 01:20:05,VALID,1000.71,VALID,0,VALID,93.1805,VALID,0,VALID,22.9811,VALID,52,VALID,0,
2011-09-01, 01:21:05,VALID,1000.74,VALID,0,VALID,93.2111,VALID,0,VALID,22.9615,VALID,52,VALID,0,
2011-09-01, 01:22:05,VALID,1000.7,VALID,0,VALID,93.2111,VALID,0,VALID,22.942,VALID,52,VALID,0,
2011-09-01, 01:23:05,VALID,1000.72,VALID,0,VALID,93.1882,VALID,0,VALID,22.9225,VALID,52,VALID,0,
2011-09-01, 01:24:05,VALID,1000.69,VALID,0,VALID,93.234,VALID,0,VALID,22.9208,VALID,52,VALID,0,
2011-09-01, 01:25:05,VALID,1000.66,VALID,0,VALID,93.2111,VALID,0,VALID,22.9208,VALID,52,VALID,0,
2011-09-01, 01:26:05,VALID,1000.64,VALID,0,VALID,93.2568,VALID,0,VALID,22.9208,VALID,52,VALID,0,
2011-09-01, 01:27:05,VALID,1000.65,VALID,0,VALID,93.2645,VALID,0,VALID,22.9208,VALID,52,VALID,0,
2011-09-01, 01:28:05,VALID,1000.58,VALID,0,VALID,93.2645,VALID,0,VALID,22.9403,VALID,52,VALID,0,
2011-09-01, 01:29:05,VALID,1000.59,VALID,0,VALID,93.2568,VALID,0,VALID,22.9793,VALID,52,VALID,0,
2011-09-01, 01:30:05,VALID,1000.54,VALID,0,VALID,93.2797,VALID,0,VALID,23.0006,VALID,52,VALID,0,
2011-09-01, 01:31:05,VALID,1000.53,VALID,0,VALID,93.295,VALID,0,VALID,22.9988,VALID,52,VALID,0,
2011-09-01, 01:32:05,VALID,1000.52,VALID,0,VALID,93.3103,VALID,0,VALID,22.9988,VALID,52,VALID,0,
2011-09-01, 01:33:05,VALID,1000.51,VALID,0,VALID,93.295,VALID,0,VALID,23.0183,VALID,52,VALID,0,
2011-09-01, 01:34:05,VALID,1000.48,VALID,0,VALID,93.3026,VALID,0,VALID,23.0378,VALID,52,VALID,0,
2011-09-01, 01:35:05,VALID,1000.49,VALID,0,VALID,93.3103,VALID,0,VALID,23.0378,VALID,52,VALID,0,
2011-09-01, 01:36:05,VALID,1000.48,VALID,0,VALID,93.3255,VALID,0,VALID,23.0573,VALID,52,VALID,0,
2011-09-01, 01:37:05,VALID,1000.49,VALID,0,VALID,93.3255,VALID,0,VALID,23.0573,VALID,52,VALID,0,
2011-09-01, 01:38:05,VALID,1000.47,VALID,0,VALID,93.3255,VALID,0,VALID,23.0378,VALID,52,VALID,0,
2011-09-01, 01:39:05,VALID,1000.48,VALID,0,VALID,93.3408,VALID,0,VALID,23.0378,VALID,52,VALID,0,
2011-09-01, 01:40:05,VALID,1000.47,VALID,0,VALID,93.3484,VALID,0,VALID,23.0166,VALID,52,VALID,0,
2011-09-01, 01:41:05,VALID,1000.49,VALID,0,VALID,93.3637,VALID,0,VALID,23.0183,VALID,52,VALID,0,
2011-09-01, 01:42:05,VALID,1000.49,VALID,0,VALID,93.3637,VALID,0,VALID,22.9988,VALID,52,VALID,0,
2011-09-01, 01:43:05,VALID,1000.48,VALID,0,VALID,93.3484,VALID,0,VALID,23.0183,VALID,52,VALID,0,
2011-09-01, 01:44:05,VALID,1000.49,VALID,0,VALID,93.356,VALID,0,VALID,23.0183,VALID,52,VALID,0,
2011-09-01, 01:45:05,VALID,1000.47,VALID,0,VALID,93.356,VALID,0,VALID,23.0378,VALID,52,VALID,0,
2011-09-01, 01:46:05,VALID,1000.48,VALID,0,VALID,93.356,VALID,0,VALID,23.0378,VALID,52,VALID,0,
2011-09-01, 01:47:05,VALID,1000.47,VALID,0,VALID,93.3484,VALID,0,VALID,22.9988,VALID,52,VALID,0,
2011-09-01, 01:48:05,VALID,1000.45,VALID,0,VALID,93.3637,VALID,0,VALID,22.9776,VALID,52,VALID,0,
2011-09-01, 01:49:05,VALID,1000.42,VALID,0,VALID,93.3637,VALID,0,VALID,22.9793,VALID,52,VALID,0,
2011-09-01, 01:50:05,VALID,1000.41,VALID,0,VALID,93.3637,VALID,0,VALID,22.9793,VALID,52,VALID,0,
2011-09-01, 01:51:05,VALID,1000.41,VALID,0,VALID,93.3637,VALID,0.112286,VALID,22.9988,VALID,52,VALID,0,
2011-09-01, 01:52:05,VALID,1000.4,VALID,0,VALID,93.3637,VALID,0,VALID,22.9988,VALID,52,VALID,0,
2011-09-01, 01:53:05,VALID,1000.39,VALID,0,VALID,93.3789,VALID,0,VALID,22.9776,VALID,52,VALID,0,
2011-09-01, 01:54:05,VALID,1000.39,VALID,0,VALID,93.3713,VALID,0,VALID,22.9776,VALID,52,VALID,0,
2011-09-01, 01:55:05,VALID,1000.39,VALID,0,VALID,93.3789,VALID,0,VALID,22.9793,VALID,52,VALID,0,
2011-09-01, 01:56:05,VALID,1000.4,VALID,0,VALID,93.3866,VALID,0,VALID,22.9793,VALID,52,VALID,0,
2011-09-01, 01:57:05,VALID,1000.39,VALID,0,VALID,93.3789,VALID,0,VALID,22.9988,VALID,52,VALID,0,
2011-09-01, 01:58:05,VALID,1000.37,VALID,0,VALID,93.3789,VALID,0.112286,VALID,22.9776,VALID,52,VALID,0,
2011-09-01, 01:59:05,VALID,1000.38,VALID,0,VALID,93.3942,VALID,0.112286,VALID,22.9581,VALID,52,VALID,0,
2011-09-01, 02:00:05,VALID,1000.35,VALID,0,VALID,93.3789,VALID,0,VALID,22.9988,VALID,52,VALID,0,
2011-09-01, 02:01:05,VALID,1000.34,VALID,0,VALID,93.3942,VALID,0,VALID,22.9988,VALID,52,VALID,0,
2011-09-01, 02:02:05,VALID,1000.31,VALID,0,VALID,93.3789,VALID,0,VALID,22.9988,VALID,52,VALID,0,
2011-09-01, 02:03:05,VALID,1000.31,VALID,0,VALID,93.3713,VALID,0,VALID,22.9971,VALID,52,VALID,0,
2011-09-01, 02:04:05,VALID,1000.32,VALID,0,VALID,93.3789,VALID,0,VALID,23.0183,VALID,52,VALID,0,
2011-09-01, 02:05:05,VALID,1000.31,VALID,0,VALID,93.4094,VALID,0,VALID,22.9971,VALID,52,VALID,0,
2011-09-01, 02:06:05,VALID,1000.35,VALID,0,VALID,93.3866,VALID,0,VALID,22.9971,VALID,52,VALID,0,
2011-09-01, 02:07:05,VALID,1000.33,VALID,0,VALID,93.4094,VALID,0,VALID,22.9988,VALID,52,VALID,0,
2011-09-01, 02:08:05,VALID,1000.34,VALID,0,VALID,93.4171,VALID,0,VALID,22.9776,VALID,52,VALID,0,
2011-09-01, 02:09:05,VALID,1000.34,VALID,0,VALID,93.4323,VALID,0,VALID,22.9776,VALID,52,VALID,0,
2011-09-01, 02:10:05,VALID,1000.37,VALID,0,VALID,93.4094,VALID,0,VALID,22.9385,VALID,52,VALID,0,
2011-09-01, 02:11:05,VALID,1000.37,VALID,0,VALID,93.4094,VALID,0,VALID,22.9385,VALID,52,VALID,0,
2011-09-01, 02:12:05,VALID,1000.37,VALID,0,VALID,93.4094,VALID,0,VALID,22.9598,VALID,52,VALID,0,
2011-09-01, 02:13:05,VALID,1000.38,VALID,0,VALID,93.4171,VALID,0,VALID,22.9598,VALID,52,VALID,0,
2011-09-01, 02:14:05,VALID,1000.42,VALID,0,VALID,93.4247,VALID,0,VALID,22.9403,VALID,52,VALID,0,
2011-09-01, 02:15:05,VALID,1000.35,VALID,0,VALID,93.4323,VALID,0,VALID,22.9013,VALID,52,VALID,0,
2011-09-01, 02:16:05,VALID,1000.37,VALID,0,VALID,93.4323,VALID,0,VALID,22.8818,VALID,52,VALID,0,
2011-09-01, 02:17:05,VALID,1000.35,VALID,0,VALID,93.4171,VALID,0,VALID,22.8818,VALID,62,VALID,0,
2011-09-01, 02:18:05,VALID,1000.35,VALID,0,VALID,93.44,VALID,0,VALID,22.8818,VALID,62,VALID,0,
2011-09-01, 02:19:05,VALID,1000.34,VALID,0,VALID,93.4476,VALID,0,VALID,22.88,VALID,62,VALID,0,
2011-09-01, 02:20:05,VALID,1000.31,VALID,0,VALID,93.4247,VALID,0,VALID,22.9013,VALID,62,VALID,0,
2011-09-01, 02:21:05,VALID,1000.32,VALID,0,VALID,93.4552,VALID,0,VALID,22.88,VALID,62,VALID,0,
2011-09-01, 02:22:05,VALID,1000.3,VALID,0,VALID,93.44,VALID,0,VALID,22.88,VALID,62,VALID,0,
2011-09-01, 02:23:05,VALID,1000.29,VALID,0,VALID,93.4476,VALID,0,VALID,22.8818,VALID,62,VALID,0,
2011-09-01, 02:24:05,VALID,1000.28,VALID,0,VALID,93.4552,VALID,0,VALID,22.8818,VALID,62,VALID,0,
2011-09-01, 02:25:05,VALID,1000.28,VALID,0,VALID,93.44,VALID,0,VALID,22.8818,VALID,62,VALID,0,
2011-09-01, 02:26:05,VALID,1000.28,VALID,0,VALID,93.4476,VALID,0,VALID,22.8995,VALID,62,VALID,0,
2011-09-01, 02:27:05,VALID,1000.25,VALID,0,VALID,93.4781,VALID,0,VALID,22.9013,VALID,62,VALID,0,
2011-09-01, 02:28:05,VALID,1000.24,VALID,0,VALID,93.4628,VALID,0,VALID,22.8818,VALID,62,VALID,0,
2011-09-01, 02:29:05,VALID,1000.27,VALID,0,VALID,93.4781,VALID,0,VALID,22.8818,VALID,62,VALID,0,
2011-09-01, 02:30:05,VALID,1000.21,VALID,0,VALID,93.4934,VALID,0,VALID,22.8818,VALID,62,VALID,0,
2011-09-01, 02:31:05,VALID,1000.25,VALID,0,VALID,93.4476,VALID,0,VALID,22.8427,VALID,62,VALID,0,
2011-09-01, 02:32:05,VALID,1000.21,VALID,0,VALID,93.4781,VALID,0,VALID,22.8232,VALID,62,VALID,0,
2011-09-01, 02:33:05,VALID,1000.2,VALID,0,VALID,93.4857,VALID,0,VALID,22.7825,VALID,62,VALID,0,
2011-09-01, 02:34:05,VALID,1000.17,VALID,0,VALID,93.4934,VALID,0,VALID,22.8232,VALID,62,VALID,0,
2011-09-01, 02:35:05,VALID,1000.16,VALID,0,VALID,93.4705,VALID,0,VALID,22.8427,VALID,62,VALID,0,
2011-09-01, 02:36:05,VALID,1000.15,VALID,0,VALID,93.4857,VALID,0.112286,VALID,22.8818,VALID,62,VALID,0,
2011-09-01, 02:37:05,VALID,1000.13,VALID,0,VALID,93.4781,VALID,0,VALID,22.9013,VALID,62,VALID,0,
2011-09-01, 02:38:05,VALID,1000.14,VALID,0,VALID,93.4857,VALID,0,VALID,22.9013,VALID,62,VALID,0,
2011-09-01, 02:39:05,VALID,1000.12,VALID,0,VALID,93.4934,VALID,0,VALID,22.9208,VALID,62,VALID,0,
2011-09-01, 02:40:05,VALID,1000.13,VALID,0,VALID,93.4934,VALID,0,VALID,22.9403,VALID,167,VALID,0,
2011-09-01, 02:41:05,VALID,1000.12,VALID,0,VALID,93.501,VALID,0,VALID,22.9793,VALID,167,VALID,0,
2011-09-01, 02:42:05,VALID,1000.13,VALID,0,VALID,93.4857,VALID,0,VALID,23.0183,VALID,167,VALID,0.742188,
2011-09-01, 02:43:05,VALID,1000.11,VALID,0,VALID,93.4781,VALID,0,VALID,23.0166,VALID,167,VALID,1.01328,
2011-09-01, 02:44:05,VALID,1000.1,VALID,0,VALID,93.501,VALID,0,VALID,23.0378,VALID,167,VALID,0.872656,
2011-09-01, 02:45:05,VALID,1000.1,VALID,0,VALID,93.4857,VALID,0,VALID,23.0573,VALID,167,VALID,1.00078,
2011-09-01, 02:46:05,VALID,1000.1,VALID,0,VALID,93.5086,VALID,0,VALID,23.0769,VALID,167,VALID,0.879687,
2011-09-01, 02:47:05,VALID,1000.1,VALID,0,VALID,93.501,VALID,0,VALID,23.0769,VALID,166,VALID,1.17852,
2011-09-01, 02:48:05,VALID,1000.12,VALID,0,VALID,93.4934,VALID,0,VALID,23.0964,VALID,164,VALID,0.822266,
2011-09-01, 02:49:05,VALID,1000.11,VALID,0,VALID,93.4934,VALID,0,VALID,23.1354,VALID,164,VALID,0.730078,
2011-09-01, 02:50:05,VALID,1000.11,VALID,0,VALID,93.4934,VALID,0,VALID,23.1354,VALID,164,VALID,0.739844,
2011-09-01, 02:51:05,VALID,1000.13,VALID,0,VALID,93.4552,VALID,0,VALID,23.1744,VALID,164,VALID,0.584766,
2011-09-01, 02:52:05,VALID,1000.09,VALID,0,VALID,93.4476,VALID,0,VALID,23.1744,VALID,164,VALID,0.562109,
2011-09-01, 02:53:05,VALID,1000.1,VALID,0,VALID,93.44,VALID,0,VALID,23.1744,VALID,164,VALID,0.549609,
2011-09-01, 02:54:04,VALID,1000.11,VALID,0,VALID,93.4476,VALID,0,VALID,23.1974,VALID,164,VALID,0.672266,
2011-09-01, 02:55:04,VALID,1000.1,VALID,0,VALID,93.3942,VALID,0,VALID,23.1762,VALID,164,VALID,0.397656,
2011-09-01, 02:56:04,VALID,1000.12,VALID,0,VALID,93.3942,VALID,0,VALID,23.1762,VALID,164,VALID,0,
2011-09-01, 02:57:04,VALID,1000.13,VALID,0,VALID,93.3713,VALID,0,VALID,23.1566,VALID,164,VALID,0.524609,
2011-09-01, 02:58:04,VALID,1000.17,VALID,0,VALID,93.3713,VALID,0,VALID,23.0769,VALID,164,VALID,0.719922,
2011-09-01, 02:59:04,VALID,1000.16,VALID,0,VALID,93.3408,VALID,0,VALID,23.0201,VALID,164,VALID,0.663672,
2011-09-01, 03:00:04,VALID,1000.18,VALID,0,VALID,93.295,VALID,0,VALID,22.9615,VALID,164,VALID,0.641016,
2011-09-01, 03:01:04,VALID,1000.2,VALID,0,VALID,93.2797,VALID,0,VALID,22.9208,VALID,164,VALID,0.599609,
2011-09-01, 03:02:04,VALID,1000.16,VALID,0,VALID,93.2416,VALID,0,VALID,22.903,VALID,164,VALID,0.570313,
2011-09-01, 03:03:04,VALID,1000.18,VALID,0,VALID,93.234,VALID,0,VALID,22.903,VALID,164,VALID,0.498437,
2011-09-01, 03:04:04,VALID,1000.18,VALID,0,VALID,93.2111,VALID,0,VALID,22.903,VALID,164,VALID,0.580469,
2011-09-01, 03:05:04,VALID,1000.15,VALID,0,VALID,93.2263,VALID,0,VALID,22.903,VALID,164,VALID,0.523438,
2011-09-01, 03:06:04,VALID,1000.18,VALID,0,VALID,93.2187,VALID,0,VALID,22.942,VALID,164,VALID,0.444141,
2011-09-01, 03:07:04,VALID,1000.18,VALID,0,VALID,93.1958,VALID,0,VALID,22.9615,VALID,164,VALID,0.563672,
2011-09-01, 03:08:04,VALID,1000.15,VALID,0,VALID,93.2111,VALID,0,VALID,22.9811,VALID,163,VALID,0.855078,
2011-09-01, 03:09:04,VALID,1000.15,VALID,0,VALID,93.2034,VALID,0,VALID,23.0201,VALID,141,VALID,0.824609,
2011-09-01, 03:10:04,VALID,1000.17,VALID,0,VALID,93.2187,VALID,0,VALID,23.0006,VALID,141,VALID,0.825,
2011-09-01, 03:11:04,VALID,1000.15,VALID,0,VALID,93.1958,VALID,0,VALID,22.9793,VALID,141,VALID,0.709766,
2011-09-01, 03:12:04,VALID,1000.16,VALID,0,VALID,93.1882,VALID,0,VALID,22.9793,VALID,141,VALID,0.58125,
2011-09-01, 03:13:04,VALID,1000.14,VALID,0,VALID,93.1882,VALID,0,VALID,22.9793,VALID,141,VALID,0.426562,
2011-09-01, 03:14:04,VALID,1000.14,VALID,0,VALID,93.1653,VALID,0,VALID,22.9403,VALID,141,VALID,0.277734,
2011-09-01, 03:15:04,VALID,1000.17,VALID,0,VALID,93.15,VALID,0,VALID,22.9208,VALID,141,VALID,0.192969,
2011-09-01, 03:16:04,VALID,1000.16,VALID,0,VALID,93.15,VALID,0,VALID,22.9208,VALID,141,VALID,0,
2011-09-01, 03:17:04,VALID,1000.17,VALID,0,VALID,93.15,VALID,0,VALID,22.9013,VALID,141,VALID,0,
2011-09-01, 03:18:04,VALID,1000.15,VALID,0,VALID,93.1271,VALID,0,VALID,22.8818,VALID,141,VALID,0.0125,
2011-09-01, 03:19:04,VALID,1000.18,VALID,0,VALID,93.1195,VALID,0,VALID,22.8835,VALID,141,VALID,0.187109,
2011-09-01, 03:20:04,VALID,1000.17,VALID,0,VALID,93.15,VALID,0,VALID,22.8427,VALID,141,VALID,0.161328,
2011-09-01, 03:21:04,VALID,1000.19,VALID,0,VALID,93.1271,VALID,0,VALID,22.8232,VALID,141,VALID,0.245312,
2011-09-01, 03:22:04,VALID,1000.22,VALID,0,VALID,93.1195,VALID,0,VALID,22.8232,VALID,141,VALID,0.334375,
2011-09-01, 03:23:04,VALID,1000.25,VALID,0,VALID,93.1348,VALID,0,VALID,22.8037,VALID,141,VALID,0.384766,
2011-09-01, 03:24:04,VALID,1000.26,VALID,0,VALID,93.1271,VALID,0,VALID,22.7842,VALID,141,VALID,0.548047,
2011-09-01, 03:25:04,VALID,1000.27,VALID,0,VALID,93.1271,VALID,0,VALID,22.7647,VALID,141,VALID,0.692969,
2011-09-01, 03:26:04,VALID,1000.28,VALID,0,VALID,93.15,VALID,0,VALID,22.7647,VALID,115,VALID,0.773438,
2011-09-01, 03:27:04,VALID,1000.31,VALID,0,VALID,93.1653,VALID,0,VALID,22.7647,VALID,54,VALID,0.915234,
2011-09-01, 03:28:04,VALID,1000.32,VALID,0,VALID,93.15,VALID,0,VALID,22.7257,VALID,49,VALID,0.973437,
2011-09-01, 03:29:04,VALID,1000.32,VALID,0,VALID,93.1577,VALID,0,VALID,22.7257,VALID,47,VALID,0.930469,
2011-09-01, 03:30:04,VALID,1000.35,VALID,0,VALID,93.1805,VALID,0.112286,VALID,22.7062,VALID,47,VALID,0.962109,
2011-09-01, 03:31:04,VALID,1000.32,VALID,0,VALID,93.1882,VALID,0,VALID,22.6672,VALID,47,VALID,0.887891,
2011-09-01, 03:32:04,VALID,1000.32,VALID,0,VALID,93.2111,VALID,0.112286,VALID,22.6672,VALID,47,VALID,0.835938,
2011-09-01, 03:33:04,VALID,1000.33,VALID,0,VALID,93.1958,VALID,0,VALID,22.6867,VALID,47,VALID,0.783594,
2011-09-01, 03:34:04,VALID,1000.32,VALID,0,VALID,93.2034,VALID,0,VALID,22.6655,VALID,47,VALID,0.765234,
2011-09-01, 03:35:04,VALID,1000.29,VALID,0,VALID,93.2111,VALID,0,VALID,22.6672,VALID,47,VALID,0.685938,
2011-09-01, 03:36:04,VALID,1000.3,VALID,0,VALID,93.2263,VALID,0,VALID,22.6672,VALID,47,VALID,0.635938,
2011-09-01, 03:37:04,VALID,1000.3,VALID,0,VALID,93.2263,VALID,0,VALID,22.6672,VALID,47,VALID,0.548047,
2011-09-01, 03:38:04,VALID,1000.31,VALID,0,VALID,93.2263,VALID,0,VALID,22.6867,VALID,47,VALID,0.633984,
2011-09-01, 03:39:04,VALID,1000.34,VALID,0,VALID,93.2568,VALID,0,VALID,22.6655,VALID,47,VALID,0.809375,
2011-09-01, 03:40:04,VALID,1000.32,VALID,0,VALID,93.2645,VALID,0,VALID,22.7062,VALID,47,VALID,0.726563,
2011-09-01, 03:41:04,VALID,1000.31,VALID,0,VALID,93.2645,VALID,0,VALID,22.7062,VALID,47,VALID,0.605078,
2011-09-01, 03:42:04,VALID,1000.32,VALID,0,VALID,93.2568,VALID,0,VALID,22.7045,VALID,47,VALID,0.616406,
2011-09-01, 03:43:04,VALID,1000.31,VALID,0,VALID,93.2874,VALID,0.112286,VALID,22.7257,VALID,47,VALID,0.602734,
2011-09-01, 03:44:04,VALID,1000.35,VALID,0,VALID,93.2721,VALID,0,VALID,22.7257,VALID,47,VALID,0.610547,
2011-09-01, 03:45:04,VALID,1000.31,VALID,0,VALID,93.2645,VALID,0,VALID,22.7452,VALID,47,VALID,0.544922,
2011-09-01, 03:46:04,VALID,1000.34,VALID,0,VALID,93.2797,VALID,0,VALID,22.7257,VALID,47,VALID,0.529297,
2011-09-01, 03:47:04,VALID,1000.3,VALID,0,VALID,93.295,VALID,0,VALID,22.7062,VALID,47,VALID,0.597656,
2011-09-01, 03:48:04,VALID,1000.3,VALID,0,VALID,93.295,VALID,0,VALID,22.7062,VALID,47,VALID,0.558984,
2011-09-01, 03:49:04,VALID,1000.31,VALID,0,VALID,93.2645,VALID,0.112286,VALID,22.7062,VALID,47,VALID,0.655469,
2011-09-01, 03:50:04,VALID,1000.3,VALID,0,VALID,93.2874,VALID,0,VALID,22.7062,VALID,47,VALID,0.659375,
2011-09-01, 03:51:04,VALID,1000.3,VALID,0,VALID,93.2874,VALID,0,VALID,22.7062,VALID,47,VALID,0.668359,
2011-09-01, 03:52:04,VALID,1000.32,VALID,0,VALID,93.2874,VALID,0.112286,VALID,22.6867,VALID,47,VALID,0.61875,
2011-09-01, 03:53:04,VALID,1000.31,VALID,0,VALID,93.2645,VALID,0,VALID,22.7062,VALID,47,VALID,0.552344,
2011-09-01, 03:54:04,VALID,1000.33,VALID,0,VALID,93.2721,VALID,0,VALID,22.7079,VALID,47,VALID,0.701172,